Location: Newark
(23.5328°S, 46.7919°W)
Time: 13:34:16
(UTC+00:00)

N. Korean satellite - Pass Details

Date: 07 March 2021
Orbit: 452 x 499 km, 97.2° (Epoch: 17 April)

Event Time Altitude Azimuth Distance (km) Brightness Sun altitude
Rises 07:04:41 0° 47° (NE) 2,581 10.6 -27.8°
Reaches altitude 10° 07:07:26 10° 70° (ENE) 1,709 9.9 -27.2°
Maximum altitude 07:09:37 15° 107° (ESE) 1,421 9.8 -26.7°
Drops below altitude 10° 07:11:48 10° 143° (SE) 1,723 10.0 -26.3°
Sets 07:14:35 0° 166° (SSE) 2,614 10.7 -25.7°
